Location: Brno
(49.2000°N, 16.6330°E)
Time: 09:46:30
(UTC+02:00)

ISS - Pass Details

Date: 27 May 2021
Orbit: 417 x 422 km, 51.6° (Epoch: 13 June)

Event Time Altitude Azimuth Distance (km) Brightness Sun altitude
Rises 23:51:44 0° 281° (W) 2,367 0.4 -18.1°
Reaches altitude 10° 23:54:53 10° 249° (WSW) 1,499 -1.0 -18.3°
Enters shadow 23:55:02 10° 247° (WSW) 1,477 -1.1 -18.3°
